Tri-State/Milton J. Ferguson Field
KHTS : now visible

Airfield :











YOU CAN JOIN US ON...

 
LOGIN :

Register | Disclaimer

   EN    FR    IT 

 









Legend :    VFR   Marginal VFR   IFR   Intensive IFR   Very Intensive IFR
Visi :
Ceiling :
>= 8 km
>= 3000ft
5 to 8 km
1000 to 3000 ft
1500m to 5 km
500 to 1000 ft
800 to 1500m
200 to 500 ft
< 800m
< 200 ft
Symbols :   Thunderstorms  Fog  Heavy snow  Heavy precipitations  Wind > 20 kt






- Airport Elevation : 828 ft
- IATA code : HTS


KHTS - Tri-State/Milton J. Ferguson Field

CURRENT METAR :
  • 041551Z 00000KT 10SM CLR 18/01 A3007 RMK AO2 SLP178 T01780006

EXPIRED METARs :
  • 041451Z 00000KT 10SM CLR 15/M01 A3008 RMK AO2 SLP182 T01501006 51008
  • 041351Z 00000KT 10SM CLR 13/01 A3007 RMK AO2 SLP180 T01280006

TAF KHTS
Valid from the 04 at 15:00 until the 05 at 12:00 UTC


041519Z 0415/0512 00000KT P6SM SKC
FM050800 00000KT P6SM BKN070



MET'MAP, your aeronautical weather chart ! - Copyright ORBIFLY December 2007 - Disclaimer

ORBIFLY MET'MAP TEAM :

Programming & Development : Alexandra Zaïnal
Concept & original design : Baudouin d'Aumeries
Assistance for programming : Marc-Olivier Méhu
Technical & hardware support : Manuel Goepfert

Contact : metmap@orbifly.com




SOURCES & CREDITS :

   NOAA       Earth
Advisory